Location: B?ogocice
(50.2413°N, 20.2361°E)
Time: 00:26:12
(UTC+00:00)

Cosmos 1455 Rocket - Pass Details

Date: 15 June 2024
Orbit: 602 x 625 km, 82.5° (Epoch: 18 July)

Event Time Altitude Azimuth Distance (km) Brightness Sun altitude
Rises 00:28:41 0° 340° (NNW) 2,919 7.2 -12.6°
Reaches altitude 10° 00:31:11 10° 328° (NNW) 2,009 6.1 -12.4°
Maximum altitude 00:34:53 26° 272° (W) 1,228 4.4 -12.1°
Enters shadow 00:37:24 16° 226° (SW) 1,632 4.6 -12.0°
